{"data":{"norad_id":66719,"epoch":"2026-05-25T04:16:00.059808Z","epoch_age_seconds":52991,"freshness":"FRESH","line1":"1 66719U 25276BF  26145.17777847  .00005979  00000+0  28476-3 0  9996","line2":"2 66719  97.4240 219.1403 0006028  89.2531 270.9394 15.19490180 26922","mean_motion":15.1949018,"eccentricity":0.0006028,"inclination_deg":97.424,"raan_deg":219.1403,"arg_perigee_deg":89.2531,"mean_anomaly_deg":270.9394,"bstar":0.00028476,"rev_number":2692,"period_min":94.768628251352,"perigee_km":503.22974788772,"apogee_km":511.5309275901,"semimajor_km":6885.5173377389,"source":"CELESTRAK","updated_at":"2026-05-25T13:38:13.348907Z"}}